NWS Melbourne » East Central Florida Hourly Weather Roundup

MIARWRMLB 000
TTAA00 KMLB 202211
HOURLY WEATHER ROUNDUP AROUND FLORIDA
NATIONAL WEATHER SERVICE OFFICE MELBOURNE FL
500 PM EST SAT DEC 20 2014
  
CITY           SKY/WX    TMP DP  RH WIND       PRES   REMARKS
MELBOURNE      PTCLDY    73  63  70 E8        30.06R                  
FORT PIERCE    CLEAR     74  60  61 SE9       30.05R                  
ORLANDO INTL   MOCLDY    75  57  53 CALM      30.06R                  
DAYTONA BEACH  MOCLDY    68  61  78 N7        30.08R                  
VERO BEACH     CLEAR     73  60  63 SE9       30.06R                  
$$
...ELSEWHERE ACROSS CENTRAL FLORIDA...
  
CITY           SKY/WX    TMP DP  RH WIND       PRES   REMARKS
PATRICK AFB    PTCLDY    70  65  86 E8        30.05S                  
JFK SPACE CTR  CLOUDY    72  62  70 E5        30.06R                  
CAPE CANAVERAL MOCLDY    71  62  75 E5        30.05R                  
TITUSVILLE     PTCLDY    72  63  73 SE6       30.06S                  
ORLANDO EXEC   CLEAR     74  58  57 CALM      30.05R                  
LEESBURG       CLOUDY    72  57  59 N5        30.06R                  
SANFORD        CLOUDY    73  59  61 NE3       30.06R                  
WINTER HAVEN   MOCLDY    76  56  49 CALM      30.06R                  
KISSIMMEE      MOCLDY    75  61  60 SE7       30.06R                  
OKEECHOBEE     CLEAR     73  59  60 CALM      30.05S                  
TAMPA          MOCLDY    73  57  57 S3        30.04S                  
$$
...NORTHERN FLORIDA...
  
CITY           SKY/WX    TMP DP  RH WIND       PRES   REMARKS
DELAND         PTCLDY   N/A N/A N/A NE7       30.07R                  
NEW SMYRNA BCH PTCLDY    66  63  88 NE6       30.07S                  
ORMOND BEACH   PTCLDY    64  61  88 NE7       30.08R                  
PALM COAST     CLEAR    N/A N/A N/A N7        30.07R                  
ST AUGUSTINE   CLOUDY    61  58  90 N12       30.10R FOG              
OCALA          MOCLDY    72  55  56 S3        30.06R                  
GAINESVILLE    MOCLDY    71  55  56 CALM      30.07R                  
JACKSONVILLE   MOCLDY    61  54  77 NE10      30.10R                  
TALLAHASSEE    MOCLDY    61  48  62 NE6       30.08S                  
$$
...ALONG THE SOUTHEAST COAST TO THE KEYS...
  
CITY           SKY/WX    TMP DP  RH WIND       PRES   REMARKS
STUART         PTCLDY    73  59  60 SE9       30.06R                  
WEST PALM BCH  PTCLDY    75  62  64 SE10      30.04R                  
MIAMI          PTCLDY    74  61  63 SE8       30.05R                  
KEY WEST       MOCLDY    77  67  71 SE8       30.02R                  
$$
...MARINE REPORTS...
  
STATION/POSITION TIME  TEMP    WIND        PRES    WAVE   SWELL
                       AIR SEA DIR/SP/G            HT/PER HT/PER/DIR
                 (UTC) (F)     (DEG/KT/KT) (MB)    (FT/S) (FT/S/D)
ST AUGUSTINE FP  2200   61     360/ 18/ 19 1019.4R
20NM E CAPE CANA 2200   72 76  120/  4/  6 1018.4R   2/10   2/ 80/10
120 E NEW SMYRNA 2200   73 77  270/  4/  6 1018.8R   2/11   2/ 90/11
TRIDENT PIER     2200   69 65   70/  5/  6 1017.5R
SEBASTIAN INLET  2200   71     110/  3     1019.0R
4NM E PORT CANAV 2200      67                N/A     1/11   2/100/11
6NM NE FPR INLET 2200      76                N/A     2/10   2/ 60/11
SETTLEMENT PT GB 2200   72      70/  8/  8 1018.8R
$$
  
 


USA.gov is the U.S. government's official web portal to all federal, state and local government web resources and services.